Location: Horowhenua
(40.7500°S, 175.3333°E)
Time: 05:03:01
(UTC+00:00)

IRS-1D - Pass Details

Date: 28 January 2023
Orbit: 738 x 816 km, 98.7° (Epoch: 01 April)

Event Time Altitude Azimuth Distance (km) Brightness Sun altitude
Exits shadow 15:12:50 32° 276° (W) 1,283 4.3 -20.2°
Drops below altitude 10° 15:17:19 10° 214° (SSW) 2,292 6.1 -19.7°
Sets 15:19:50 0° 203° (SSW) 3,218 7.1 -19.3°
